| time (UTC) | temp F | wind direction | speed knots | gust knots | rain 1hr in | rain 24hr in | rain mn in | humidity % | barometer mb |
| 20260506012354 | 79 | 177 | 1.7 | 1.7 | 0.00 | 0.00 | 0.00 | 84 | 1008.2 |
| 20260506011851 | 79 | 184 | 1.7 | 2.6 | 0.00 | 0.00 | 0.00 | 84 | 1008.0 |
| 20260506011348 | 79 | 163 | 1.7 | 2.6 | 0.00 | 0.00 | 0.00 | 83 | 1007.9 |
| 20260506010845 | 80 | 194 | 1.7 | 2.6 | 0.00 | 0.00 | 0.00 | 83 | 1008.0 |
| 20260506010344 | 80 | 157 | 2.6 | 3.5 | 0.00 | 0.00 | 0.00 | 83 | 1007.8 |
| 20260506005840 | 80 | 202 | 0.9 | 2.6 | 0.00 | 0.00 | 0.00 | 82 | 1007.7 |
| 20260506005337 | 80 | 191 | 1.7 | 6.1 | 0.00 | 0.00 | 0.00 | 82 | 1007.7 |
| 20260506004833 | 80 | 227 | 0.9 | 2.6 | 0.00 | 0.00 | 0.00 | 82 | 1007.7 |
| 20260506004331 | 80 | 231 | 0.9 | 7.8 | 0.00 | 0.00 | 0.00 | 81 | 1007.7 |
| 20260506003827 | 80 | 230 | 0.9 | 1.7 | 0.00 | 0.00 | 0.00 | 81 | 1007.7 |
| 20260506003323 | 80 | 249 | 3.5 | 5.2 | 0.00 | 0.00 | 0.00 | 81 | 1007.5 |
| 20260506002819 | 80 | 171 | 4.3 | 5.2 | 0.00 | 0.00 | 0.00 | 81 | 1007.6 |
| 20260506002316 | 80 | 174 | 1.7 | 2.6 | 0.00 | 0.00 | 0.00 | 81 | 1007.6 |
| 20260506001812 | 81 | 215 | 1.7 | 3.5 | 0.00 | 0.00 | 0.00 | 80 | 1007.8 |
| 20260506001309 | 81 | 240 | 2.6 | 3.5 | 0.00 | 0.00 | 0.00 | 80 | 1007.8 |
| 20260506000806 | 81 | 237 | 1.7 | 3.5 | 0.00 | 0.00 | 0.00 | 80 | 1007.7 |
| 20260506000304 | 81 | 198 | 3.5 | 5.2 | 0.00 | 0.00 | 0.00 | 81 | 1007.6 |
| 20260505235800 | 81 | 211 | 1.7 | 5.2 | 0.00 | 0.00 | 0.00 | 81 | 1007.5 |
| 20260505235258 | 81 | 190 | 1.7 | 7.0 | 0.00 | 0.00 | 0.00 | 80 | 1007.6 |
| 20260505234754 | 81 | 235 | 2.6 | 5.2 | 0.00 | 0.00 | 0.00 | 80 | 1007.7 |
| 20260505234252 | 82 | 216 | 3.5 | 7.0 | 0.00 | 0.00 | 0.00 | 80 | 1007.6 |
| 20260505233749 | 82 | 137 | 1.7 | 6.1 | 0.00 | 0.00 | 0.00 | 80 | 1007.5 |
| 20260505233247 | 82 | 201 | 0.9 | 5.2 | 0.00 | 0.00 | 0.00 | 80 | 1007.3 |
| 20260505232744 | 82 | 216 | 0.9 | 6.1 | 0.00 | 0.00 | 0.00 | 79 | 1007.4 |
| 20260505232241 | 82 | 180 | 1.7 | 3.5 | 0.00 | 0.00 | 0.00 | 79 | 1007.4 |
| 20260505231737 | 82 | 235 | 1.7 | 6.1 | 0.00 | 0.00 | 0.00 | 79 | 1007.3 |
| 20260505231237 | 82 | 222 | 1.7 | 3.5 | 0.00 | 0.00 | 0.00 | 78 | 1007.2 |
| 20260505230734 | 82 | 186 | 1.7 | 3.5 | 0.00 | 0.00 | 0.00 | 78 | 1007.5 |
| 20260505230231 | 82 | 187 | 0.9 | 6.1 | 0.00 | 0.00 | 0.00 | 78 | 1007.3 |
| 20260505225727 | 83 | 217 | 3.5 | 5.2 | 0.00 | 0.00 | 0.00 | 77 | 1007.6 |
| 20260505225225 | 83 | 210 | 0.9 | 2.6 | 0.00 | 0.00 | 0.00 | 78 | 1007.5 |
| 20260505224720 | 82 | 236 | 3.5 | 6.1 | 0.00 | 0.00 | 0.00 | 78 | 1007.5 |
| 20260505224218 | 83 | 224 | 0.9 | 5.2 | 0.00 | 0.00 | 0.00 | 78 | 1007.3 |
| 20260505223715 | 83 | 170 | 4.3 | 6.1 | 0.00 | 0.00 | 0.00 | 78 | 1007.4 |
| 20260505223211 | 83 | 129 | 2.6 | 6.1 | 0.00 | 0.00 | 0.00 | 77 | 1007.3 |
| 20260505222707 | 84 | 144 | 1.7 | 2.6 | 0.00 | 0.00 | 0.00 | 76 | 1007.2 |
| 20260505222203 | 84 | 167 | 7.0 | 9.6 | 0.00 | 0.00 | 0.00 | 75 | 1007.6 |
| 20260505221701 | 84 | 223 | 0.9 | 5.2 | 0.00 | 0.00 | 0.00 | 75 | 1007.4 |
| 20260505221157 | 84 | 219 | 1.7 | 3.5 | 0.00 | 0.00 | 0.00 | 75 | 1007.6 |
| 20260505220654 | 84 | 226 | 1.7 | 11.3 | 0.00 | 0.00 | 0.00 | 75 | 1007.4 |
| 20260505220152 | 84 | 203 | 2.6 | 5.2 | 0.00 | 0.00 | 0.00 | 76 | 1007.4 |
| 20260505215649 | 84 | 260 | 3.5 | 5.2 | 0.00 | 0.00 | 0.00 | 75 | 1007.6 |
| 20260505215147 | 84 | 204 | 1.7 | 5.2 | 0.00 | 0.00 | 0.00 | 75 | 1007.7 |
| 20260505214645 | 84 | 193 | 2.6 | 3.5 | 0.00 | 0.00 | 0.00 | 75 | 1007.6 |
| 20260505214142 | 84 | 227 | 2.6 | 7.8 | 0.00 | 0.00 | 0.00 | 75 | 1008.0 |
| 20260505213640 | 84 | 238 | 2.6 | 7.0 | 0.00 | 0.00 | 0.00 | 75 | 1008.2 |
| 20260505213136 | 84 | 287 | 3.5 | 6.1 | 0.00 | 0.00 | 0.00 | 74 | 1008.0 |
| 20260505212632 | 84 | 215 | 2.6 | 7.8 | 0.00 | 0.00 | 0.00 | 74 | 1008.2 |
| 20260505212130 | 84 | 211 | 3.5 | 6.1 | 0.00 | 0.00 | 0.00 | 74 | 1008.0 |
| 20260505211627 | 84 | 219 | 3.5 | 7.0 | 0.00 | 0.00 | 0.00 | 74 | 1008.3 |
| 20260505211124 | 84 | 225 | 1.7 | 5.2 | 0.00 | 0.00 | 0.00 | 74 | 1008.0 |
| 20260505210620 | 84 | 202 | 3.5 | 7.8 | 0.00 | 0.00 | 0.00 | 75 | 1008.3 |
| 20260505210117 | 84 | 156 | 4.3 | 6.1 | 0.00 | 0.00 | 0.00 | 75 | 1008.3 |
| 20260505205615 | 85 | 210 | 3.5 | 6.1 | 0.00 | 0.00 | 0.00 | 73 | 1008.4 |
| 20260505205113 | 84 | 149 | 0.9 | 5.2 | 0.00 | 0.00 | 0.00 | 75 | 1008.4 |
| 20260505204609 | 84 | 241 | 1.7 | 7.0 | 0.00 | 0.00 | 0.00 | 75 | 1008.5 |
| 20260505204107 | 84 | 214 | 3.5 | 7.0 | 0.00 | 0.00 | 0.00 | 75 | 1008.4 |
| 20260505203603 | 85 | 202 | 1.7 | 5.2 | 0.00 | 0.00 | 0.00 | 74 | 1008.6 |
| 20260505203101 | 85 | 235 | 3.5 | 6.1 | 0.00 | 0.00 | 0.00 | 74 | 1008.6 |
| 20260505202556 | 83 | 158 | 3.5 | 5.2 | 0.00 | 0.00 | 0.00 | 77 | 1008.7 |
| 20260505202052 | 83 | 235 | 3.5 | 7.8 | 0.00 | 0.00 | 0.00 | 77 | 1008.9 |
| 20260505201549 | 84 | 231 | 0.9 | 3.5 | 0.00 | 0.00 | 0.00 | 76 | 1008.8 |
| 20260505201047 | 84 | 218 | 1.7 | 8.7 | 0.00 | 0.00 | 0.00 | 76 | 1009.1 |
| 20260505200545 | 84 | 233 | 1.7 | 7.8 | 0.00 | 0.00 | 0.00 | 74 | 1009.0 |
| 20260505200041 | 84 | 191 | 2.6 | 7.8 | 0.00 | 0.00 | 0.00 | 75 | 1009.2 |
| 20260505195537 | 85 | 222 | 1.7 | 3.5 | 0.00 | 0.00 | 0.00 | 75 | 1009.2 |
| 20260505195035 | 84 | 208 | 1.7 | 6.1 | 0.00 | 0.00 | 0.00 | 74 | 1009.2 |
| 20260505194532 | 84 | 186 | 2.6 | 7.8 | 0.00 | 0.00 | 0.00 | 75 | 1009.4 |
| 20260505194027 | 84 | 231 | 1.7 | 6.1 | 0.00 | 0.00 | 0.00 | 74 | 1009.4 |
| 20260505193525 | 84 | 209 | 2.6 | 3.5 | 0.00 | 0.00 | 0.00 | 75 | 1009.5 |
| 20260505193022 | 84 | 243 | 1.7 | 5.2 | 0.00 | 0.00 | 0.00 | 75 | 1009.5 |
| 20260505192521 | 84 | 191 | 4.3 | 7.8 | 0.00 | 0.00 | 0.00 | 76 | 1009.4 |
| 20260505192018 | 83 | 187 | 2.6 | 5.2 | 0.00 | 0.00 | 0.00 | 76 | 1009.4 |
| 20260505191516 | 82 | 229 | 3.5 | 7.0 | 0.00 | 0.00 | 0.00 | 77 | 1009.5 |
| 20260505191014 | 83 | 198 | 3.5 | 6.1 | 0.00 | 0.00 | 0.00 | 77 | 1009.7 |
| 20260505190508 | 83 | 208 | 5.2 | 8.7 | 0.00 | 0.00 | 0.00 | 76 | 1009.5 |
| 20260505190004 | 83 | 226 | 2.6 | 5.2 | 0.00 | 0.00 | 0.00 | 77 | 1009.6 |
| 20260505185501 | 83 | 207 | 1.7 | 3.5 | 0.00 | 0.00 | 0.00 | 77 | 1009.7 |
| 20260505184957 | 84 | 261 | 3.5 | 7.0 | 0.00 | 0.00 | 0.00 | 77 | 1009.8 |
| 20260505184454 | 83 | 208 | 1.7 | 6.1 | 0.00 | 0.00 | 0.00 | 78 | 1009.8 |
| 20260505183950 | 83 | 223 | 0.0 | 5.2 | 0.00 | 0.00 | 0.00 | 79 | 1009.6 |
| 20260505183448 | 82 | 179 | 1.7 | 3.5 | 0.00 | 0.00 | 0.00 | 81 | 1009.8 |
| 20260505182944 | 80 | 209 | 3.5 | 5.2 | 0.00 | 0.00 | 0.00 | 82 | 1009.8 |
| 20260505182442 | 80 | 282 | 1.7 | 3.5 | 0.00 | 0.00 | 0.00 | 83 | 1010.0 |
| 20260505181937 | 80 | 192 | 1.7 | 3.5 | 0.00 | 0.00 | 0.00 | 84 | 1010.1 |
| 20260505181435 | 80 | 212 | 1.7 | 2.6 | 0.00 | 0.00 | 0.00 | 84 | 1009.9 |
| 20260505180932 | 80 | 218 | 3.5 | 5.2 | 0.00 | 0.00 | 0.00 | 84 | 1010.0 |
| 20260505180428 | 80 | 257 | 3.5 | 5.2 | 0.00 | 0.00 | 0.00 | 83 | 1010.0 |
| 20260505175925 | 80 | 236 | 1.7 | 2.6 | 0.00 | 0.00 | 0.00 | 83 | 1010.0 |
| 20260505175421 | 80 | 255 | 3.5 | 5.2 | 0.00 | 0.00 | 0.00 | 83 | 1010.1 |
| 20260505174918 | 79 | 243 | 2.6 | 5.2 | 0.00 | 0.00 | 0.00 | 84 | 1010.1 |
| 20260505174415 | 79 | 257 | 2.6 | 5.2 | 0.00 | 0.00 | 0.00 | 84 | 1010.1 |
| 20260505173912 | 80 | 222 | 3.5 | 5.2 | 0.00 | 0.00 | 0.00 | 84 | 1010.2 |
| 20260505173408 | 80 | 206 | 0.9 | 7.8 | 0.00 | 0.00 | 0.00 | 83 | 1010.3 |
| 20260505172905 | 80 | 248 | 4.3 | 7.0 | 0.00 | 0.00 | 0.00 | 83 | 1010.1 |
| 20260505172357 | 80 | 150 | 1.7 | 5.2 | 0.00 | 0.00 | 0.00 | 83 | 1010.2 |
| 20260505171857 | 80 | 233 | 3.5 | 7.0 | 0.00 | 0.00 | 0.00 | 83 | 1010.2 |
| 20260505171353 | 79 | 167 | 3.5 | 7.0 | 0.00 | 0.00 | 0.00 | 84 | 1010.3 |
| 20260505170850 | 79 | 166 | 2.6 | 6.1 | 0.00 | 0.00 | 0.00 | 85 | 1010.3 |
| 20260505170347 | 79 | 226 | 0.9 | 6.1 | 0.00 | 0.00 | 0.00 | 84 | 1010.4 |
| 20260505165842 | 79 | 142 | 3.5 | 6.1 | 0.00 | 0.00 | 0.00 | 85 | 1010.5 |
| 20260505165339 | 79 | 233 | 3.5 | 7.8 | 0.00 | 0.00 | 0.00 | 84 | 1010.4 |
| 20260505164834 | 79 | 173 | 1.7 | 6.1 | 0.00 | 0.00 | 0.00 | 85 | 1010.5 |
| 20260505164331 | 79 | 245 | 0.9 | 7.8 | 0.00 | 0.00 | 0.00 | 85 | 1010.6 |
| 20260505163829 | 79 | 232 | 0.0 | 3.5 | 0.00 | 0.00 | 0.00 | 85 | 1010.5 |
| 20260505163328 | 78 | 222 | 2.6 | 5.2 | 0.00 | 0.00 | 0.00 | 85 | 1010.6 |
| 20260505162826 | 78 | 230 | 0.9 | 2.6 | 0.00 | 0.00 | 0.00 | 86 | 1010.8 |
| 20260505162321 | 78 | 204 | 0.9 | 6.1 | 0.00 | 0.00 | 0.00 | 87 | 1010.5 |
| 20260505161819 | 77 | 186 | 1.7 | 3.5 | 0.00 | 0.00 | 0.00 | 87 | 1010.6 |
| 20260505161317 | 77 | 193 | 2.6 | 3.5 | 0.00 | 0.00 | 0.00 | 88 | 1010.7 |
| 20260505160814 | 77 | 240 | 3.5 | 5.2 | 0.00 | 0.00 | 0.00 | 88 | 1010.5 |
| 20260505160311 | 77 | 243 | 1.7 | 2.6 | 0.00 | 0.00 | 0.00 | 88 | 1010.4 |
| 20260505153250 | 77 | 152 | 2.6 | 7.0 | 0.00 | 0.00 | 0.00 | 87 | 1010.1 |
| 20260505152747 | 77 | 227 | 3.5 | 6.1 | 0.00 | 0.00 | 0.00 | 87 | 1010.1 |
| 20260505152243 | 77 | 228 | 2.6 | 3.5 | 0.00 | 0.00 | 0.00 | 87 | 1010.3 |
| 20260505151738 | 77 | 206 | 1.7 | 5.2 | 0.00 | 0.00 | 0.00 | 87 | 1010.3 |
| 20260505151236 | 77 | 222 | 1.7 | 3.5 | 0.00 | 0.00 | 0.00 | 87 | 1010.2 |
| 20260505150732 | 77 | 202 | 0.9 | 7.0 | 0.00 | 0.00 | 0.00 | 87 | 1010.1 |
| 20260505150230 | 76 | 200 | 1.7 | 5.2 | 0.00 | 0.00 | 0.00 | 88 | 1010.2 |
| 20260505140159 | 75 | 220 | 0.9 | 6.1 | 0.00 | 0.00 | 0.00 | 91 | 1009.8 |
| 20260505130123 | 72 | 208 | 0.9 | 3.5 | 0.00 | 0.00 | 0.00 | 94 | 1009.8 |
| 20260505124613 | 72 | 155 | 2.6 | 3.5 | 0.00 | 0.00 | 0.00 | 95 | 1009.8 |
| 20260505124109 | 71 | 203 | 1.7 | 3.5 | 0.00 | 0.00 | 0.00 | 95 | 1009.4 |
| 20260505123605 | 71 | 189 | 0.9 | 3.5 | 0.00 | 0.00 | 0.00 | 95 | 1009.5 |
| 20260505123102 | 71 | 208 | 1.7 | 1.7 | 0.00 | 0.00 | 0.00 | 95 | 1009.4 |
| 20260505122558 | 71 | 185 | 0.9 | 2.6 | 0.00 | 0.00 | 0.00 | 96 | 1009.7 |
| 20260505122056 | 71 | 219 | 0.9 | 3.5 | 0.00 | 0.00 | 0.00 | 96 | 1009.7 |
| 20260505121552 | 71 | 202 | 0.9 | 1.7 | 0.00 | 0.00 | 0.00 | 96 | 1009.7 |
| 20260505121049 | 71 | 191 | 0.0 | 1.7 | 0.00 | 0.00 | 0.00 | 96 | 1009.6 |
| 20260505120545 | 70 | 208 | 0.9 | 6.1 | 0.00 | 0.00 | 0.00 | 96 | 1009.7 |
| 20260505120041 | 70 | 213 | 0.0 | 0.9 | 0.00 | 0.00 | 0.00 | 96 | 1009.6 |
| 20260505115536 | 70 | 186 | 1.7 | 3.5 | 0.00 | 0.00 | 0.00 | 96 | 1009.2 |
| 20260505115034 | 70 | 233 | 0.9 | 2.6 | 0.00 | 0.00 | 0.00 | 96 | 1009.3 |
| 20260505114531 | 70 | 232 | 2.6 | 3.5 | 0.00 | 0.00 | 0.00 | 96 | 1009.3 |
| 20260505114027 | 70 | 191 | 0.9 | 1.7 | 0.00 | 0.00 | 0.00 | 96 | 1009.2 |
| 20260505113523 | 70 | 197 | 0.9 | 1.7 | 0.00 | 0.00 | 0.00 | 96 | 1009.2 |
| 20260505113020 | 70 | 222 | 0.9 | 1.7 | 0.00 | 0.00 | 0.00 | 96 | 1009.5 |
| 20260505112517 | 70 | 205 | 0.9 | 2.6 | 0.00 | 0.00 | 0.00 | 96 | 1009.8 |
| 20260505112015 | 70 | 220 | 0.0 | 1.7 | 0.00 | 0.00 | 0.00 | 95 | 1009.5 |
| 20260505111513 | 70 | 215 | 0.0 | 1.7 | 0.00 | 0.00 | 0.00 | 95 | 1009.3 |
| 20260505111010 | 70 | 204 | 0.9 | 2.6 | 0.00 | 0.00 | 0.00 | 95 | 1009.5 |
| 20260505110507 | 70 | 212 | 0.9 | 2.6 | 0.00 | 0.00 | 0.00 | 95 | 1009.4 |
| 20260505101933 | 70 | 201 | 0.0 | 0.9 | 0.00 | 0.00 | 0.00 | 95 | 1009.5 |
| 20260505101432 | 70 | 209 | 0.0 | 0.9 | 0.00 | 0.00 | 0.00 | 95 | 1009.4 |
| 20260505100928 | 70 | 185 | 0.9 | 1.7 | 0.00 | 0.00 | 0.00 | 95 | 1009.5 |
| 20260505100425 | 70 | 196 | 0.9 | 0.9 | 0.00 | 0.00 | 0.00 | 95 | 1009.5 |
| 20260505095921 | 70 | 196 | 0.0 | 1.7 | 0.00 | 0.00 | 0.00 | 95 | 1009.3 |
| 20260505095418 | 69 | 188 | 2.6 | 3.5 | 0.00 | 0.00 | 0.00 | 95 | 1009.5 |
| 20260505094914 | 69 | 202 | 0.0 | 0.9 | 0.00 | 0.00 | 0.00 | 95 | 1009.6 |
| 20260505094411 | 69 | 198 | 0.9 | 0.9 | 0.00 | 0.00 | 0.00 | 95 | 1009.7 |
| 20260505093907 | 70 | 192 | 0.0 | 1.7 | 0.00 | 0.00 | 0.00 | 94 | 1009.4 |
| 20260505093404 | 69 | 197 | 0.9 | 1.7 | 0.00 | 0.00 | 0.00 | 94 | 1009.5 |
| 20260505092901 | 70 | 201 | 0.9 | 0.9 | 0.00 | 0.00 | 0.00 | 94 | 1009.6 |
| 20260505092359 | 70 | 213 | 0.9 | 0.9 | 0.00 | 0.00 | 0.00 | 94 | 1009.7 |
| 20260505091856 | 70 | 203 | 0.9 | 0.9 | 0.00 | 0.00 | 0.00 | 94 | 1009.6 |
| 20260505091354 | 70 | 199 | 0.0 | 0.9 | 0.00 | 0.00 | 0.00 | 94 | 1009.6 |
| 20260505090852 | 70 | 193 | 0.9 | 1.7 | 0.00 | 0.00 | 0.00 | 94 | 1009.9 |
| 20260505090350 | 69 | 202 | 0.9 | 0.9 | 0.00 | 0.00 | 0.00 | 94 | 1009.9 |
| 20260505085847 | 69 | 209 | 0.9 | 1.7 | 0.00 | 0.00 | 0.00 | 94 | 1009.9 |
| 20260505085345 | 69 | 216 | 0.9 | 1.7 | 0.00 | 0.00 | 0.00 | 94 | 1009.9 |
| 20260505084842 | 69 | 201 | 0.0 | 0.9 | 0.00 | 0.00 | 0.00 | 94 | 1009.7 |
| 20260505084341 | 70 | 214 | 0.9 | 1.7 | 0.00 | 0.00 | 0.00 | 93 | 1009.8 |
| 20260505083838 | 70 | 229 | 0.0 | 3.5 | 0.00 | 0.00 | 0.00 | 93 | 1009.9 |
| 20260505083335 | 70 | 199 | 0.9 | 1.7 | 0.00 | 0.00 | 0.00 | 93 | 1009.8 |
| 20260505082831 | 70 | 215 | 0.9 | 1.7 | 0.00 | 0.00 | 0.00 | 92 | 1009.9 |
| 20260505082328 | 70 | 197 | 0.0 | 0.0 | 0.00 | 0.00 | 0.00 | 92 | 1010.1 |
| 20260505081824 | 70 | 224 | 1.7 | 3.5 | 0.00 | 0.00 | 0.00 | 92 | 1010.1 |
| 20260505081321 | 70 | 201 | 0.9 | 0.9 | 0.00 | 0.00 | 0.00 | 92 | 1010.0 |
| 20260505080818 | 70 | 204 | 0.9 | 1.7 | 0.00 | 0.00 | 0.00 | 91 | 1010.2 |
| 20260505080314 | 70 | 209 | 0.9 | 3.5 | 0.00 | 0.00 | 0.00 | 91 | 1010.0 |
| 20260505075809 | 70 | 206 | 0.9 | 1.7 | 0.00 | 0.00 | 0.00 | 91 | 1010.3 |
| 20260505075307 | 70 | 185 | 0.9 | 1.7 | 0.00 | 0.00 | 0.00 | 91 | 1010.4 |
| 20260505074804 | 70 | 251 | 1.7 | 2.6 | 0.00 | 0.00 | 0.00 | 91 | 1010.3 |
| 20260505074301 | 70 | 194 | 0.0 | 2.6 | 0.00 | 0.00 | 0.00 | 91 | 1010.3 |
| 20260505073758 | 70 | 168 | 1.7 | 1.7 | 0.00 | 0.00 | 0.00 | 91 | 1010.6 |
| 20260505073256 | 70 | 226 | 0.9 | 3.5 | 0.00 | 0.00 | 0.00 | 91 | 1010.3 |
| 20260505072753 | 70 | 178 | 0.9 | 2.6 | 0.00 | 0.00 | 0.00 | 91 | 1010.4 |
| 20260505072249 | 70 | 213 | 0.0 | 1.7 | 0.00 | 0.00 | 0.00 | 90 | 1010.4 |
| 20260505071745 | 70 | 223 | 1.7 | 1.7 | 0.00 | 0.00 | 0.00 | 90 | 1010.5 |
| 20260505071241 | 70 | 200 | 0.9 | 2.6 | 0.00 | 0.00 | 0.00 | 90 | 1010.5 |
| 20260505070739 | 70 | 203 | 0.9 | 1.7 | 0.00 | 0.00 | 0.00 | 90 | 1010.7 |
| 20260505070235 | 70 | 188 | 0.9 | 3.5 | 0.00 | 0.00 | 0.00 | 90 | 1010.7 |
| 20260505065731 | 70 | 172 | 1.7 | 2.6 | 0.00 | 0.00 | 0.00 | 89 | 1010.8 |
| 20260505065228 | 70 | 186 | 1.7 | 2.6 | 0.00 | 0.00 | 0.00 | 89 | 1010.8 |
| 20260505064725 | 70 | 225 | 0.9 | 3.5 | 0.00 | 0.00 | 0.00 | 89 | 1010.8 |
| 20260505064223 | 70 | 229 | 1.7 | 2.6 | 0.00 | 0.00 | 0.00 | 90 | 1010.9 |
| 20260505063721 | 70 | 217 | 0.9 | 2.6 | 0.00 | 0.00 | 0.00 | 89 | 1010.9 |
| 20260505063217 | 70 | 203 | 0.9 | 1.7 | 0.00 | 0.00 | 0.00 | 89 | 1010.8 |
| 20260505062713 | 70 | 210 | 0.9 | 3.5 | 0.00 | 0.00 | 0.00 | 89 | 1010.9 |
| 20260505062211 | 70 | 211 | 0.9 | 1.7 | 0.00 | 0.00 | 0.00 | 89 | 1011.1 |
| 20260505061707 | 70 | 238 | 1.7 | 1.7 | 0.00 | 0.00 | 0.00 | 89 | 1011.1 |
| 20260505061206 | 70 | 217 | 0.9 | 3.5 | 0.00 | 0.00 | 0.00 | 88 | 1011.1 |
| 20260505060703 | 70 | 180 | 0.9 | 2.6 | 0.00 | 0.00 | 0.00 | 88 | 1011.1 |
| 20260505060200 | 70 | 215 | 2.6 | 3.5 | 0.00 | 0.00 | 0.00 | 88 | 1011.1 |
| 20260505055655 | 70 | 199 | 1.7 | 3.5 | 0.00 | 0.00 | 0.00 | 88 | 1011.2 |
| 20260505055151 | 70 | 202 | 1.7 | 2.6 | 0.00 | 0.00 | 0.00 | 88 | 1011.1 |
| 20260505054649 | 70 | 175 | 2.6 | 3.5 | 0.00 | 0.00 | 0.00 | 88 | 1011.2 |
| 20260505054147 | 70 | 204 | 0.0 | 1.7 | 0.00 | 0.00 | 0.00 | 88 | 1011.1 |
| 20260505053644 | 70 | 181 | 0.9 | 2.6 | 0.00 | 0.00 | 0.00 | 87 | 1011.3 |
| 20260505053140 | 70 | 189 | 1.7 | 2.6 | 0.00 | 0.00 | 0.00 | 87 | 1011.5 |
| 20260505052638 | 70 | 191 | 0.9 | 1.7 | 0.00 | 0.00 | 0.00 | 87 | 1011.4 |
| 20260505052135 | 70 | 203 | 2.6 | 3.5 | 0.00 | 0.00 | 0.00 | 87 | 1011.5 |
| 20260505051631 | 71 | 215 | 1.7 | 2.6 | 0.00 | 0.00 | 0.00 | 86 | 1011.6 |
| 20260505051130 | 71 | 203 | 1.7 | 2.6 | 0.00 | 0.00 | 0.00 | 86 | 1011.5 |
| 20260505050627 | 71 | 205 | 1.7 | 5.2 | 0.00 | 0.00 | 0.00 | 86 | 1011.4 |
| 20260505050125 | 71 | 203 | 1.7 | 3.5 | 0.00 | 0.00 | 0.00 | 86 | 1011.5 |
| 20260505041555 | 71 | 210 | 1.7 | 7.0 | 0.00 | 0.00 | 0.00 | 84 | 1011.6 |
| 20260505041052 | 72 | 209 | 1.7 | 7.0 | 0.00 | 0.00 | 0.00 | 83 | 1011.5 |
| 20260505040549 | 72 | 232 | 3.5 | 7.0 | 0.00 | 0.00 | 0.00 | 83 | 1011.3 |
| 20260505040046 | 72 | 244 | 2.6 | 7.8 | 0.00 | 0.00 | 0.00 | 83 | 1011.5 |
| 20260505035542 | 72 | 178 | 4.3 | 5.2 | 0.00 | 0.00 | 0.00 | 82 | 1011.6 |
| 20260505035040 | 72 | 115 | 4.3 | 6.1 | 0.00 | 0.00 | 0.00 | 82 | 1011.7 |
| 20260505034536 | 72 | 203 | 0.9 | 3.5 | 0.00 | 0.00 | 0.00 | 82 | 1011.7 |
| 20260505034033 | 72 | 201 | 6.1 | 7.0 | 0.00 | 0.00 | 0.00 | 81 | 1011.5 |
| 20260505033530 | 73 | 171 | 2.6 | 7.8 | 0.00 | 0.00 | 0.00 | 81 | 1011.6 |
| 20260505033028 | 73 | 215 | 0.9 | 3.5 | 0.00 | 0.00 | 0.00 | 81 | 1011.8 |
| 20260505032525 | 73 | 201 | 1.7 | 5.2 | 0.00 | 0.00 | 0.00 | 81 | 1011.9 |
| 20260505032022 | 73 | 165 | 0.9 | 6.1 | 0.00 | 0.00 | 0.00 | 81 | 1011.7 |
| 20260505031519 | 73 | 206 | 2.6 | 6.1 | 0.00 | 0.00 | 0.00 | 81 | 1011.9 |
| 20260505031015 | 73 | 183 | 2.6 | 5.2 | 0.00 | 0.00 | 0.00 | 81 | 1011.7 |
| 20260505030512 | 73 | 270 | 2.6 | 7.8 | 0.00 | 0.00 | 0.00 | 80 | 1011.7 |
| 20260505030008 | 73 | 246 | 3.5 | 6.1 | 0.00 | 0.00 | 0.00 | 80 | 1011.6 |
| 20260505025504 | 73 | 180 | 1.7 | 3.5 | 0.00 | 0.00 | 0.00 | 80 | 1011.6 |
| 20260505025004 | 73 | 184 | 1.7 | 5.2 | 0.00 | 0.00 | 0.00 | 79 | 1011.3 |
| 20260505024500 | 73 | 217 | 1.7 | 2.6 | 0.00 | 0.00 | 0.00 | 79 | 1011.4 |
| 20260505023957 | 73 | 220 | 1.7 | 3.5 | 0.00 | 0.00 | 0.00 | 79 | 1011.3 |
| 20260505023454 | 74 | 262 | 3.5 | 5.2 | 0.00 | 0.00 | 0.00 | 78 | 1011.4 |
| 20260505022952 | 74 | 207 | 2.6 | 3.5 | 0.00 | 0.00 | 0.00 | 78 | 1011.6 |
| 20260505022449 | 74 | 165 | 2.6 | 7.0 | 0.00 | 0.00 | 0.00 | 77 | 1011.6 |
| 20260505021946 | 74 | 262 | 5.2 | 7.0 | 0.00 | 0.00 | 0.00 | 77 | 1011.5 |
| 20260505021442 | 74 | 219 | 1.7 | 2.6 | 0.00 | 0.00 | 0.00 | 77 | 1011.4 |
| 20260505020938 | 75 | 194 | 1.7 | 7.0 | 0.00 | 0.00 | 0.00 | 77 | 1011.4 |
| 20260505020433 | 75 | 194 | 1.7 | 7.8 | 0.00 | 0.00 | 0.00 | 76 | 1011.2 |
| 20260505015931 | 75 | 230 | 1.7 | 2.6 | 0.00 | 0.00 | 0.00 | 77 | 1011.4 |
| 20260505015428 | 75 | 206 | 0.0 | 6.1 | 0.00 | 0.00 | 0.00 | 77 | 1011.2 |
| 20260505014925 | 74 | 222 | 1.7 | 5.2 | 0.00 | 0.00 | 0.00 | 77 | 1011.2 |
| 20260505014422 | 74 | 194 | 0.9 | 3.5 | 0.00 | 0.00 | 0.00 | 77 | 1011.1 |
| 20260505013919 | 74 | 232 | 2.6 | 3.5 | 0.00 | 0.00 | 0.00 | 77 | 1011.2 |
| 20260505013416 | 74 | 202 | 2.6 | 2.6 | 0.00 | 0.00 | 0.00 | 78 | 1011.1 |
| 20260505012914 | 74 | 132 | 1.7 | 2.6 | 0.00 | 0.00 | 0.00 | 77 | 1011.2 |